Breckenridge, USA 16 day weather forecast

Slopes altitude range 2925 m - 3915m

Number of lifts: 23 Pistes: 155km

In some cases the lift and piste totals shown are for the ski domain (e.g. Three Valleys) rather than individual resort (e.g. Courchevel)

Overview

The 16 day weather forecast is fully updated 4 times every day.

    • Tue 17 JUL 2018
    • Tue 17
    • 7C 8C
    • Wed 18 JUL 2018
    • Wed 18
    • 7C 10C
    • Thu 19 JUL 2018
    • Thu 19
    • 7C 8C
    • Fri 20 JUL 2018
    • Fri 20
    • 7C 12C
    • Sat 21 JUL 2018
    • Sat 21
    • 7C 9C
    • Sun 22 JUL 2018
    • Sun 22
    • 9C 10C
    • Mon 23 JUL 2018
    • Mon 23
    • 8C 9C
    • Tue 24 JUL 2018
    • Tue 24
    • 7C 9C
    • Wed 25 JUL 2018
    • Wed 25
    • 10C 12C
    • Thu 26 JUL 2018
    • Thu 26
    • 10C 12C
    • Fri 27 JUL 2018
    • Fri 27
    • 9C 23C
    • Sat 28 JUL 2018
    • Sat 28
    • 10C 22C
    • Sun 29 JUL 2018
    • Sun 29
    • 10C 23C
    • Mon 30 JUL 2018
    • Mon 30
    • 11C 24C
    • Tue 31 JUL 2018
    • Tue 31
    • 12C 22C
    • Wed 01 AUG 2018
    • Wed 01
    • 10C 22C

Date:

Time Type 0°C level Temp Chill Snow Cloud Speed Gust Dir Press
3:00 4908m 9°C 9_2 0cm 74% 2mph 3mph 1020mB
6:00 5098m 8°C 8_3 0cm 65% 3mph 4mph 1021mB
9:00 5203m 7°C 7_1 0cm 95% 1mph 2mph 1021mB
12:00 5190m 8°C 8_3 0cm 95% 3mph 4mph 1021mB
15:00 5054m 16°C 16_5 0cm 97% 5mph 7mph 1020mB
18:00 5066m 21°C 21_5 0cm 61% 5mph 6mph 1018mB
21:00 5215m 21°C 21_4 0cm 43% 4mph 5mph 1016mB
0:00 5149m 18°C 18_5 0cm 69% 5mph 5mph 1016mB
3:00 5029m 11°C 11_2 0cm 84% 2mph 3mph 1019mB
6:00 5001m 9°C 9_2 0cm 84% 2mph 3mph 1020mB
9:00 4990m 8°C 8_4 0cm 100% 4mph 5mph 1021mB
12:00 4861m 10°C 10_4 0cm 99% 4mph 4mph 1022mB
15:00 4763m 15°C 15_6 0cm 27% 6mph 14mph 1020mB
18:00 4906m 19°C 19_11 0cm 27% 11mph 15mph 1018mB
21:00 5135m 19°C 19_11 0cm 19% 11mph 13mph 1016mB
0:00 5161m 19°C 19_11 0cm 40% 11mph 13mph 1015mB
3:00 5103m 10°C 10_5 0cm 72% 5mph 6mph 1018mB
6:00 5140m 8°C 8_4 0cm 84% 4mph 5mph 1020mB
9:00 5112m 8°C 8_3 0cm 81% 3mph 4mph 1020mB
12:00 5048m 8°C 8_2 0cm 60% 2mph 3mph 1021mB
15:00 5034m 17°C 17_4 0cm 2% 4mph 8mph 1019mB
18:00 5123m 21°C 21_7 0cm 16% 7mph 9mph 1016mB
21:00 5319m 21°C 21_8 0cm 13% 8mph 8mph 1014mB
0:00 5316m 20°C 20_10 0cm 38% 10mph 11mph 1013mB
3:00 5283m 12°C 12_4 0cm 45% 4mph 5mph 1016mB
6:00 5117m 10°C 10_3 0cm 60% 3mph 4mph 1019mB
9:00 5170m 8°C 8_1 0cm 51% 1mph 2mph 1020mB
12:00 5150m 12°C 12_1 0cm 26% 1mph 2mph 1021mB
15:00 5134m 18°C 18_3 0cm 13% 3mph 4mph 1020mB
18:00 5196m 26°C 26_0 0cm 31% 0mph 4mph 1017mB
21:00 5156m 17°C 17_4 0cm 100% 4mph 5mph 1016mB
0:00 5259m 14°C 14_4 0cm 100% 4mph 4mph 1017mB
3:00 5221m 9°C 9_5 0cm 100% 5mph 8mph 1020mB
6:00 5174m 9°C 9_6 0cm 100% 6mph 9mph 1022mB
9:00 5140m 8°C 8_4 0cm 96% 4mph 6mph 1022mB
12:00 5221m 9°C 9_1 0cm 96% 1mph 2mph 1022mB
15:00 5198m 18°C 18_3 0cm 81% 3mph 4mph 1019mB
18:00 5263m 23°C 23_5 0cm 47% 5mph 5mph 1017mB
21:00 5242m 19°C 19_3 0cm 95% 3mph 9mph 1015mB
0:00 5176m 12°C 12_5 0cm 98% 5mph 7mph 1016mB
3:00 5336m 10°C 10_2 0cm 77% 2mph 3mph 1019mB
6:00 5301m 9°C 9_3 0cm 74% 3mph 3mph 1020mB
9:00 5209m 9°C 9_3 0cm 100% 3mph 4mph 1020mB
12:00 5256m 10°C 10_4 0cm 100% 4mph 5mph 1021mB
15:00 5207m 14°C 14_4 0cm 100% 4mph 6mph 1020mB
18:00 5174m 19°C 19_2 0cm 99% 2mph 3mph 1018mB
21:00 5137m 17°C 17_3 0cm 97% 3mph 6mph 1017mB
0:00 5336m 15°C 15_3 0cm 99% 3mph 6mph 1018mB
3:00 5203m 10°C 10_4 0cm 100% 4mph 6mph 1020mB
6:00 5128m 8°C 8_2 0cm 96% 2mph 2mph 1021mB
9:00 5159m 8°C 8_3 0cm 89% 3mph 4mph 1020mB
12:00 5127m 9°C 9_2 0cm 91% 2mph 3mph 1020mB
15:00 5100m 15°C 15_5 0cm 68% 5mph 7mph 1018mB
18:00 5060m 20°C 20_4 0cm 62% 4mph 4mph 1016mB
21:00 5145m 17°C 17_1 0cm 89% 1mph 5mph 1015mB
0:00 5181m 15°C 15_1 0cm 89% 1mph 7mph 1015mB
3:00 5140m 10°C 10_3 0cm 55% 3mph 3mph 1018mB
6:00 5047m 9°C 9_4 0cm 51% 4mph 5mph 1019mB
9:00 5035m 8°C 8_3 0cm 42% 3mph 4mph 1020mB
12:00 5028m 9°C 9_3 0cm 55% 3mph 4mph 1021mB
15:00 4932m 21°C 21_2 0cm 0% 2mph 2mph 1020mB
18:00 4911m 24°C 24_7 0cm 0% 7mph 9mph 1017mB
21:00 5067m 24°C 24_8 0cm 0% 8mph 10mph 1015mB
0:00 5058m 23°C 23_9 0cm 10% 9mph 11mph 1015mB
3:00 5042m 13°C 13_2 0cm 42% 2mph 3mph 1017mB
6:00 5049m 12°C 12_5 0cm 21% 5mph 6mph 1019mB
9:00 4954m 12°C 12_5 0cm 0% 5mph 7mph 1020mB
12:00 4895m 12°C 12_3 0cm 0% 3mph 4mph 1022mB
15:00 4871m 21°C 21_3 0cm 0% 3mph 5mph 1020mB
18:00 4894m 25°C 25_8 0cm 1% 8mph 13mph 1018mB
21:00 5103m 25°C 25_14 0cm 1% 14mph 18mph 1016mB
0:00 5109m 25°C 25_13 0cm 3% 13mph 17mph 1015mB
3:00 5001m 15°C 15_3 0cm 2% 3mph 5mph 1019mB
6:00 5009m 12°C 12_7 0cm 1% 7mph 8mph 1020mB
9:00 4937m 11°C 11_5 0cm 0% 5mph 6mph 1021mB
12:00 4879m 12°C 12_4 0cm 7% 4mph 5mph 1021mB
15:00 4927m 20°C 20_5 0cm 13% 5mph 10mph 1019mB
18:00 4898m 24°C 24_11 0cm 10% 11mph 14mph 1017mB
21:00 5058m 24°C 24_11 0cm 0% 11mph 16mph 1015mB
0:00 5107m 24°C 24_8 0cm 0% 8mph 13mph 1014mB
Afternoon 0mm 0 5110m 23°C 23_4 0cm 5% 4mph 5mph 1021mB
Morning 0.015625mm 0 5164m 9°C 9_3 0cm 28% 3mph 9mph 1015mB
Afternoon 0mm 0 5020m 22°C 22_5 0cm 14% 5mph 6mph 1020mB
Morning 0.00520833mm 0 5240m 10°C 10_5 0cm 40% 5mph 9mph 1015mB
Afternoon 0mm 0 5213m 23°C 23_4 0cm 39% 4mph 5mph 1021mB
Morning 0.00520833mm 0 5300m 10°C 10_5 0cm 62% 5mph 5mph 1014mB
Afternoon 0mm 0 5237m 24°C 24_4 0cm 33% 4mph 5mph 1019mB
Morning 0.0104167mm 0.125 5319m 12°C 12_2 0cm 72% 2mph 4mph 1013mB
Afternoon 0.0625mm 0.6875 5353m 22°C 22_5 0cm 98% 5mph 5mph 1017mB
Morning 0.15625mm 1.0625 5332m 12°C 12_1 0cm 99% 1mph 2mph 1016mB
Afternoon 0mm 0 5361m 22°C 22_4 0cm 72% 4mph 5mph 1021mB
Morning 0.00520833mm 0 5363m 10°C 10_2 0cm 45% 2mph 4mph 1015mB

16 day outlook at a glance

Forecast issued: 17/07/2018 12:20:03

Chat

Your comments and questions. In a resort? Let us know what it's like!


Characters left 250

For terms and conditions see Readers Comments on the Cookie and privacy policy page.